STARLINK-33897 (63865 NORAD) Tracking and Keplerian Element Data

This shows tracking and keplerian element data for the satellite.

Feedback or suggestion? Click here.




ElementValue
Catalog63865
NameSTARLINK-33897
Epoch Orbit3543
Epoch Day353.65139086
Epoch Year2025
RAAN76.2862
Inclination70.0018
Eccentricity0.0003029
Argument of Perigee270.6136
Mean Anonmoly89.4676
Mean Motion14.98326306
Decay Rate5.702E-05
L11 63865U 25094B 25353.65139086 .00005702 00000+0 48530-3 0 9990
L22 63865 70.0018 76.2862 0003029 270.6136 89.4676 14.98326306 35433



Live tracking and technical data element details for STARLINK-33897 (NORAD 63865). STARLINK-33897 can be tracked NOW for your location showing map with azimuth and elevation plus other details from your city location.







IsCatalogInMostPopularTable: catalog: 63865, numindb: 3
Update: records affected: 1



GetName: 63865 STARLINK-33897

Hit Count: updated at: Tue, 10 Feb 2026 02:19:25 GMT